Theta_e
289 289 290 290 289 288 288 289 288 288 287 288 288 289 290 290 290 290 291 291 290 290 290 290 290 290 290 292 293 294 294 294 294 294 294 294 294 294 294 295 295 295 295 295 295 295 295 295 295 295 295 295 296 296 296 296 296 296 297 297 297 297 298 298 298 298 299 299 299 299 299 299 299 299 298 298 298 298 298 298 299 299 299 299 299 299
288 289 289 289 289 288 287 288 288 288 287 287 288 288 289 289 289 289 290 291 291 290 290 290 290 290 290 291 293 294 294 294 294 294 294 294 294 294 294 294 294 294 294 294 294 294 294 294 295 295 295 295 295 295 295 295 296 296 296 296 296 297 297 297 297 297 297 298 298 298 298 298 297 297 297 297 298 298 298 298 298 298 299 299 299 299
287 287 287 288 288 287 287 287 287 288 288 288 288 288 288 288 289 289 290 290 291 291 291 291 290 290 289 290 292 293 293 293 293 293 293 293 293 293 293 293 293 293 293 293 294 294 294 294 294 295 295 295 295 295 295 295 295 295 295 296 296 296 296 296 296 296 296 296 296 296 296 296 296 296 297 297 297 297 298 298 298 298 298 299 299 299
286 286 287 287 287 287 287 287 287 288 289 289 289 289 289 289 289 289 289 290 289 290 290 290 289 289 288 288 289 292 292 293 292 293 293 293 293 293 293 292 292 292 293 293 293 294 294 294 294 294 295 295 295 295 295 295 295 295 295 295 295 296 296 296 296 296 296 296 296 296 296 296 296 296 296 297 297 297 297 297 297 298 298 298 298 299
286 287 287 287 287 287 287 288 288 289 290 290 289 289 289 289 289 289 289 288 288 288 288 287 287 286 286 285 287 290 292 292 292 292 292 292 292 292 292 292 292 292 293 293 293 293 294 294 294 294 294 294 295 295 295 295 295 295 295 295 295 295 296 296 296 296 296 296 296 296 296 296 296 296 296 296 296 297 297 297 297 297 297 297 298 298
286 287 288 287 287 287 288 288 289 289 289 289 289 289 288 288 288 288 287 287 286 286 286 286 285 285 284 285 287 290 291 291 291 291 291 291 291 291 291 291 292 292 293 293 293 293 294 294 294 294 294 294 294 294 294 294 294 294 294 294 294 294 295 295 295 295 295 295 295 295 295 295 295 295 295 296 296 296 296 296 296 297 297 297 297 298
287 288 288 288 288 288 288 288 289 289 288 288 288 287 287 287 287 286 286 285 285 285 285 285 284 284 284 285 287 289 289 290 290 290 290 290 290 290 291 291 292 292 292 293 293 293 293 293 294 294 294 294 294 294 294 294 293 293 293 293 293 294 294 294 294 294 294 295 295 295 295 295 295 295 295 295 295 295 295 296 296 296 297 297 297 297
286 287 287 287 287 287 287 288 288 288 288 287 286 285 285 285 285 284 284 284 284 284 284 284 284 283 283 283 284 285 285 286 286 287 288 289 289 290 290 291 291 292 292 292 293 293 293 293 293 293 293 293 293 293 293 293 293 293 292 292 292 293 293 293 293 293 294 294 294 294 294 294 294 294 294 294 294 294 295 295 295 296 296 296 297 297
285 285 285 285 285 285 285 285 286 286 286 286 285 284 283 283 283 283 283 283 283 283 284 283 283 282 282 280 280 281 283 285 285 285 285 286 286 287 289 290 291 291 292 292 292 292 292 292 292 292 292 292 292 292 292 292 292 292 292 292 292 292 292 292 293 293 293 293 294 294 294 294 294 294 294 294 294 294 294 294 295 295 296 296 296 297
284 284 284 284 284 284 283 283 283 283 284 285 284 284 283 282 282 282 282 282 283 283 283 282 282 281 281 279 279 280 283 285 287 287 287 287 287 288 289 289 289 290 290 291 291 291 291 291 291 291 291 291 291 291 291 291 291 291 291 291 291 291 291 292 292 292 293 293 293 293 293 294 294 294 294 294 294 294 294 294 294 295 295 296 296 297
283 283 283 283 283 283 283 283 283 283 283 284 284 284 283 283 282 282 281 281 281 281 282 281 281 281 280 279 279 280 281 281 283 284 286 287 288 288 288 288 288 289 289 289 289 290 290 290 290 290 290 290 290 290 290 290 290 290 290 291 291 291 291 291 292 292 293 293 293 293 293 294 294 294 294 294 294 294 294 294 294 294 295 295 296 296
284 284 283 283 283 283 284 284 284 284 283 283 283 282 283 282 282 282 281 280 280 280 280 280 280 279 279 279 279 280 280 279 279 280 281 282 283 284 284 284 285 286 286 287 288 288 289 289 289 289 289 289 289 290 289 289 290 290 290 290 291 291 291 292 292 292 292 293 293 293 293 294 294 294 294 294 294 294 294 294 294 294 295 295 296 296
284 284 284 284 283 283 283 284 283 283 283 283 282 282 282 281 281 281 281 280 280 279 279 278 278 278 278 277 278 279 278 278 278 278 279 279 279 279 279 280 280 281 281 282 282 284 287 288 288 288 288 288 288 289 289 289 289 290 290 290 291 291 292 292 292 292 293 293 293 293 293 294 294 294 294 294 294 294 294 294 295 295 295 295 296 296
283 283 283 283 283 283 283 283 282 282 282 282 282 281 281 280 279 279 278 278 278 277 277 277 277 277 277 277 278 278 278 278 278 278 278 278 277 277 278 279 279 279 279 279 279 280 285 286 285 285 287 287 288 288 288 289 289 290 290 291 291 291 292 292 292 292 293 293 293 293 293 293 294 294 294 294 294 294 295 295 295 295 295 295 295 296
282 282 282 282 282 282 282 281 281 281 280 280 279 279 279 278 278 277 277 277 276 276 276 276 276 276 277 277 277 277 278 278 278 278 278 278 277 277 276 278 279 279 279 279 279 280 283 283 282 281 282 283 284 286 288 288 290 290 290 291 291 291 292 292 292 292 292 293 293 293 293 293 294 294 294 294 294 294 294 294 294 295 295 295 295 295
281 281 280 280 280 280 280 279 279 278 278 277 277 277 277 277 276 276 276 276 275 275 275 275 275 275 276 276 277 277 278 277 277 277 278 278 278 277 276 277 278 279 279 279 279 279 279 279 279 279 280 283 285 287 289 289 290 290 290 291 291 291 291 292 292 292 292 293 293 293 293 293 293 293 294 294 294 294 294 294 294 294 294 294 294 294
279 279 279 278 278 279 278 278 277 277 276 276 276 276 276 276 275 276 275 275 274 274 274 274 274 274 274 276 277 277 278 277 277 278 278 279 279 278 277 277 278 278 278 279 278 278 278 278 278 279 279 284 286 288 289 289 290 290 290 291 291 291 291 292 292 292 292 292 293 293 293 293 293 293 293 293 293 293 293 294 294 294 294 294 294 294
279 279 279 278 278 279 278 277 276 276 275 276 276 276 275 275 275 275 274 274 274 274 273 273 273 273 273 275 276 276 277 277 278 278 278 279 279 278 277 277 277 278 277 278 278 278 278 277 277 278 281 286 288 288 289 289 289 290 290 290 291 291 291 291 292 292 292 292 292 292 292 292 293 293 293 293 293 293 293 294 294 294 294 294 295 295
280 280 280 279 279 278 277 277 277 277 276 276 276 275 275 275 275 274 274 274 274 274 274 273 273 273 274 275 276 277 276 277 278 278 278 278 278 277 276 277 277 278 277 278 278 278 277 277 280 283 287 287 288 288 289 289 289 290 290 290 291 291 291 291 291 292 292 292 292 292 292 292 292 293 293 293 293 293 293 294 294 294 294 294 294 294
280 279 278 278 277 277 277 277 278 278 278 277 276 275 274 274 274 274 274 273 273 273 273 273 274 274 274 275 276 276 277 277 277 276 276 276 277 276 275 276 277 277 276 277 277 277 277 276 278 281 285 286 287 288 288 289 289 290 290 290 290 291 291 291 291 291 291 292 292 292 292 292 292 292 292 293 293 293 293 293 293 293 293 294 294 294
279 279 279 277 277 276 277 278 278 278 279 277 275 273 273 273 273 273 273 272 272 272 272 273 273 274 274 275 276 277 276 276 276 275 275 275 275 276 275 275 275 275 275 276 276 276 276 275 275 277 282 285 287 288 288 289 289 289 290 290 290 290 290 291 291 291 291 291 292 292 292 292 292 292 292 292 292 292 292 292 293 293 293 293 293 293
280 279 278 277 277 278 280 278 279 280 280 276 275 275 274 273 273 273 272 272 272 273 274 274 275 276 277 278 278 277 275 276 275 275 274 274 274 275 275 275 274 274 275 276 276 275 275 275 276 278 282 286 287 287 288 288 289 289 289 290 290 290 290 290 290 290 291 291 291 291 291 291 292 292 292 292 292 292 292 292 292 292 293 293 293 293
280 279 278 277 277 278 279 278 278 279 280 277 277 277 275 275 274 274 273 273 273 274 275 276 277 277 276 276 276 275 276 276 276 274 273 272 273 274 274 274 274 274 275 276 276 276 276 276 277 279 283 286 287 287 288 288 289 289 289 289 290 290 290 290 290 290 290 290 290 290 291 291 291 291 291 291 291 292 292 292 292 292 292 293 293 293
277 277 277 277 276 276 277 277 277 277 277 277 276 276 275 275 275 275 275 275 275 275 275 275 275 275 274 275 275 275 276 275 274 274 273 273 273 274 274 274 275 276 277 277 277 277 277 277 278 279 281 284 286 287 287 288 288 288 289 289 289 289 289 289 289 289 290 290 290 290 290 290 290 290 291 291 291 291 291 292 292 292 292 292 292 293
277 277 277 277 278 279 279 279 280 280 278 277 276 276 276 277 278 279 277 276 277 278 278 278 277 275 274 276 275 274 274 272 273 273 273 272 273 273 274 274 275 276 277 277 277 276 277 278 278 278 279 281 284 286 287 287 288 288 288 288 289 289 289 289 289 289 289 289 289 289 290 290 290 290 290 290 291 291 291 291 291 291 292 292 292 292
282 282 282 282 284 285 286 287 287 287 285 283 280 279 279 279 280 281 281 280 280 280 279 278 277 276 276 275 274 273 274 272 272 273 273 273 273 273 273 274 274 275 277 277 277 277 277 278 278 278 277 278 282 285 286 287 287 288 288 288 288 288 288 288 288 289 289 289 289 289 289 289 290 290 290 290 290 291 291 291 291 291 291 291 291 291
286 286 286 287 287 287 287 287 287 287 288 287 286 285 283 280 279 279 280 280 280 279 278 277 276 276 276 274 273 273 274 275 274 273 273 273 272 272 273 273 273 274 276 277 277 278 279 279 279 278 277 276 278 282 285 286 287 287 287 287 287 287 288 288 288 288 288 288 288 289 289 289 289 289 290 290 290 290 290 290 290 290 290 290 290 290
285 285 285 286 286 286 286 286 286 286 287 287 287 287 286 282 280 278 279 279 279 279 278 277 276 276 276 274 275 275 274 275 275 274 273 273 272 272 272 272 272 273 274 276 278 279 280 279 278 277 276 276 276 278 282 285 286 286 286 286 286 287 287 287 287 287 288 288 288 288 288 288 289 289 289 289 289 290 290 290 290 290 290 289 288 287
283 284 284 284 285 284 284 283 284 285 286 286 286 286 285 283 280 279 279 279 279 278 277 277 277 276 276 276 276 276 275 275 275 274 274 273 272 272 271 272 272 272 274 275 276 276 276 276 275 273 273 276 277 277 279 282 283 284 285 285 286 286 286 286 287 287 287 287 288 288 288 288 288 289 289 289 289 289 289 289 289 289 288 287 286 285
277 278 278 279 280 280 279 277 279 281 284 285 286 285 284 281 279 278 278 278 277 277 277 277 277 277 276 276 275 274 272 273 273 274 273 273 272 271 271 272 272 272 273 275 275 274 273 274 274 273 273 276 277 277 276 278 279 280 281 283 284 284 285 286 286 286 287 287 287 287 288 288 288 288 288 288 288 289 289 289 289 288 287 286 285 284
272 273 273 273 273 273 274 274 275 277 279 281 282 282 280 278 276 275 275 276 276 276 276 276 277 277 276 275 274 273 271 272 274 275 274 273 273 273 273 273 272 272 273 275 274 273 273 274 275 275 275 276 276 277 277 278 278 278 278 279 280 282 284 285 285 286 286 286 287 287 287 287 287 288 288 288 288 288 288 288 288 287 286 285 284 283
271 272 272 272 271 271 272 273 273 273 274 275 276 277 278 277 276 275 274 275 276 277 277 277 277 277 277 276 275 274 274 274 276 279 278 276 275 276 275 275 274 274 275 276 276 274 273 274 275 276 276 276 277 277 278 278 278 277 277 278 278 280 283 284 285 285 285 285 286 286 286 287 287 287 287 287 288 288 288 288 288 287 285 284 283 283
272 272 271 271 271 271 271 271 271 271 272 273 273 274 275 276 277 277 276 277 278 278 277 277 277 277 277 276 276 276 277 277 278 280 281 278 277 277 277 276 276 276 277 277 276 276 274 274 275 276 276 277 277 277 277 278 278 278 278 277 277 278 281 282 283 283 283 284 285 285 286 286 286 286 287 287 287 287 287 288 288 287 286 285 284 284
271 272 271 271 270 269 270 269 269 270 272 273 274 274 274 274 275 276 276 277 278 278 278 278 277 276 276 276 276 276 276 277 279 281 282 279 278 277 277 276 276 276 276 276 276 276 275 275 275 276 276 276 277 277 276 277 278 278 276 276 276 277 278 280 280 281 281 282 282 282 283 283 284 285 286 286 286 287 287 287 288 288 288 287 286 285
270 271 271 269 269 269 269 269 270 271 272 273 273 274 274 273 273 274 275 275 276 276 277 278 277 276 276 275 275 275 276 276 279 281 281 279 278 277 277 276 276 276 275 275 275 275 275 275 275 276 276 276 276 277 277 276 276 276 275 276 276 276 277 277 278 279 280 280 280 279 279 280 281 282 283 284 285 286 287 287 288 288 288 288 287 286
269 270 270 268 269 269 270 271 271 272 272 272 272 272 273 272 273 273 273 274 275 276 277 277 278 278 277 276 276 276 276 277 279 281 281 280 279 277 276 276 277 276 276 275 275 275 274 275 275 276 276 275 276 276 277 276 276 276 276 277 277 277 278 278 278 278 278 278 279 279 278 278 279 280 282 284 285 286 287 287 288 288 288 288 288 287
268 269 269 268 268 269 270 270 271 271 272 272 272 272 273 272 272 273 273 272 273 275 277 277 278 279 280 279 278 278 278 279 279 280 281 280 279 278 277 277 277 277 276 276 275 275 275 275 275 275 275 275 275 275 276 277 277 277 277 277 278 278 278 278 278 278 277 278 279 279 279 279 280 281 282 284 285 286 286 286 287 287 287 287 287 287
268 269 269 269 270 270 270 270 271 272 273 273 273 273 274 272 272 272 273 273 273 274 275 276 277 278 280 281 280 280 280 279 279 279 279 279 279 278 277 277 277 278 278 277 276 276 275 274 274 274 274 275 275 276 277 278 278 277 278 278 278 278 278 278 277 277 277 278 279 280 281 281 281 281 281 282 282 282 282 282 283 285 286 286 286 287
268 270 272 273 274 275 274 273 273 274 274 274 274 274 274 274 274 274 274 275 276 276 276 276 276 276 276 277 279 281 281 278 278 278 278 279 279 278 278 277 277 278 278 278 277 277 276 275 274 274 274 275 275 276 277 277 277 278 278 279 279 279 278 278 278 278 278 278 279 281 281 280 280 279 279 279 279 279 279 280 281 282 282 282 283 285
270 272 275 276 277 277 277 277 277 276 274 275 276 276 276 275 275 275 275 276 278 278 279 278 277 276 276 277 278 279 279 277 277 278 279 278 279 279 278 278 278 278 278 278 278 277 276 276 275 275 276 275 275 276 276 277 278 278 279 278 278 278 279 279 278 278 278 277 278 279 279 278 278 278 279 279 278 278 279 279 280 281 281 280 280 280
274 276 276 276 278 279 279 278 277 276 275 275 274 273 274 274 274 273 274 275 275 275 275 275 275 275 273 273 273 274 275 275 275 277 277 278 278 278 278 278 278 278 278 278 278 277 277 276 276 276 276 276 276 276 277 277 278 279 280 278 278 279 280 281 280 280 278 277 277 277 279 279 280 280 280 280 280 280 280 279 279 280 281 280 279 279
276 276 276 277 277 277 276 276 277 277 276 273 273 273 273 274 273 273 273 272 272 272 273 273 273 273 272 272 272 272 272 273 275 276 276 276 277 278 278 278 278 278 278 277 277 277 277 277 277 276 276 276 276 276 276 277 278 279 279 279 279 279 280 281 280 278 277 277 276 277 280 280 280 279 280 280 280 280 281 280 281 281 282 281 280 280
273 273 275 277 277 278 278 279 278 277 275 273 273 273 275 275 275 274 274 273 273 274 275 275 275 275 275 275 274 273 271 272 275 277 277 276 276 278 278 278 278 278 278 277 277 277 277 278 278 277 277 277 277 277 276 277 278 279 279 279 279 279 278 278 278 278 279 279 279 279 279 279 279 280 280 280 280 280 281 282 283 283 283 282 281 281
274 275 277 277 278 278 278 277 276 275 274 273 274 275 276 276 276 276 276 274 275 276 276 275 275 276 276 276 275 274 274 273 274 276 278 278 278 277 277 277 278 278 278 277 277 276 277 277 277 278 278 278 278 277 277 277 277 278 278 279 279 278 278 278 279 280 281 281 281 280 279 279 279 280 280 280 280 280 280 280 280 281 282 282 282 281
272 275 277 278 277 276 275 274 273 273 273 274 274 275 277 276 276 276 276 276 276 276 276 276 276 276 276 275 274 274 276 277 276 274 274 277 279 280 278 277 277 277 278 278 277 277 277 276 277 278 279 279 278 277 277 277 277 278 279 279 280 279 279 280 280 280 280 280 280 280 279 279 279 280 280 280 280 280 280 280 280 280 280 281 281 282
273 274 276 276 276 276 275 274 273 273 273 273 275 276 277 276 276 277 277 276 276 276 276 277 277 276 276 276 276 276 276 276 276 276 274 274 274 276 278 278 278 278 278 278 278 278 278 278 278 278 278 278 278 278 278 278 277 278 278 279 279 279 279 280 280 280 280 280 280 280 279 279 279 280 280 279 279 280 280 280 280 280 281 281 282 282
273 274 275 275 275 274 274 274 273 273 273 273 275 276 277 276 276 277 277 277 277 277 277 277 277 276 276 276 275 275 275 275 276 275 275 275 275 275 276 278 279 280 279 279 279 279 279 279 279 278 278 277 277 277 278 278 278 278 278 278 278 279 279 279 279 280 280 280 280 279 278 279 279 280 279 279 280 280 281 281 281 281 282 282 283 283
275 275 275 274 274 274 274 274 273 273 273 274 275 276 277 277 277 277 277 277 277 278 278 277 276 276 275 275 275 276 276 276 276 276 276 276 276 277 277 277 278 279 280 280 280 280 280 280 280 279 279 278 277 276 277 278 278 278 278 279 278 278 278 279 279 280 281 281 279 278 278 279 280 279 279 279 280 280 281 281 282 282 283 283 283 283
275 275 275 274 274 273 273 273 274 274 274 275 275 275 276 277 278 278 278 277 277 277 276 276 276 275 275 275 276 276 277 277 276 276 276 275 276 276 277 277 278 278 279 279 280 280 280 281 281 281 281 280 278 277 277 278 278 279 279 279 279 279 278 279 280 280 281 280 279 279 279 280 280 280 280 279 279 279 280 281 282 282 282 282 282 282
275 274 275 274 273 273 273 274 274 274 274 275 275 275 276 276 277 277 277 277 277 277 276 276 276 275 275 275 276 276 276 276 276 276 275 276 277 278 277 277 278 278 278 278 279 279 279 279 280 281 283 282 281 279 278 278 278 278 279 279 279 279 279 279 280 280 281 281 280 280 281 281 281 281 281 280 280 279 280 280 280 281 281 281 281 281
274 274 274 274 274 274 274 274 274 275 275 275 275 276 276 276 276 277 277 277 277 276 276 276 276 276 275 275 276 276 277 276 276 276 276 277 278 278 278 278 278 278 277 277 277 277 277 276 277 278 280 283 284 282 279 278 277 277 278 278 278 279 279 279 279 280 281 281 281 281 281 281 281 281 281 280 279 279 278 279 279 279 280 280 281 281
Wind_Speed
1 1 2 2 3 2 2 3 3 3 3 3 2 2 2 3 3 3 4 4 3 3 3 2 3 3 4 7 9 10 11 11 12 12 13 12 12 12 11 11 10 10 10 10 10 10 10 10 10 10 10 10 10 10 10 10 10 10 10 10 10 10 11 11 11 11 11 11 12 12 12 12 12 12 12 12 12 12 12 12 13 13 13 13 14 14
1 1 1 2 2 2 2 3 3 3 3 3 3 3 3 2 2 3 3 4 4 3 3 3 3 4 5 7 10 12 12 12 12 12 12 11 11 11 11 10 10 10 10 10 10 10 10 10 10 10 9 9 9 9 9 9 9 9 9 9 10 10 10 10 11 11 11 11 12 12 12 12 12 12 12 12 12 12 13 13 13 13 13 14 14 14
1 1 1 1 2 2 2 2 2 3 3 3 3 3 3 3 2 2 2 3 3 3 3 3 3 4 5 7 10 12 13 12 11 11 11 11 10 10 10 10 10 10 10 10 10 10 10 9 9 9 9 8 8 8 8 8 8 8 9 9 9 9 10 10 10 11 11 11 12 12 12 12 12 12 12 13 13 13 13 13 13 13 13 14 14 14
1 1 1 1 1 2 2 2 2 2 2 2 3 3 3 2 2 2 2 2 2 3 3 4 4 4 4 6 8 11 11 11 10 10 10 10 10 10 10 11 11 10 10 10 10 9 9 9 8 8 8 8 8 8 8 8 8 8 8 9 9 9 9 10 10 11 11 11 12 12 12 12 12 12 12 13 13 13 13 13 13 13 13 13 14 14
1 1 1 1 1 2 2 2 2 2 2 2 2 2 2 2 2 2 2 2 2 3 3 4 4 4 4 4 6 8 9 9 9 9 9 10 10 10 11 11 11 10 10 10 9 9 9 8 8 8 8 7 7 7 7 8 8 8 8 8 9 9 9 10 10 10 11 11 11 12 12 12 12 12 12 13 13 13 13 13 14 14 14 14 14 14
1 1 1 1 1 1 1 2 2 2 2 2 2 2 2 2 2 2 2 2 3 3 3 3 3 3 3 3 4 5 7 7 8 8 9 10 10 11 11 11 10 10 10 9 9 8 8 8 8 7 7 7 7 7 7 8 8 8 8 9 9 9 10 10 10 10 11 11 11 11 11 12 12 12 12 13 13 13 13 13 14 14 14 14 14 14
1 1 1 1 1 1 1 1 2 2 1 1 1 1 1 2 2 2 2 2 2 2 2 2 2 2 1 1 2 4 5 6 6 7 8 9 10 10 11 10 10 10 9 9 9 8 8 8 7 7 7 7 7 8 8 8 9 9 9 9 9 10 10 10 11 11 11 11 11 11 11 12 12 12 12 12 13 13 13 13 13 14 14 14 14 14
1 1 2 1 1 1 1 1 1 1 2 1 1 1 1 1 1 1 1 1 1 1 1 0 0 0 0 1 2 2 3 3 4 5 6 7 8 9 10 10 10 9 9 9 8 8 8 8 8 8 8 8 8 8 9 9 9 9 9 10 10 10 10 11 11 11 11 11 11 11 11 12 12 12 12 12 12 12 13 13 13 14 14 14 15 15
2 2 1 1 1 1 1 0 0 1 1 1 1 1 1 1 1 1 0 0 0 1 1 1 1 1 1 1 1 1 2 2 2 3 4 4 5 6 8 9 9 9 9 9 9 9 9 9 9 9 9 9 9 9 9 9 9 9 10 10 10 10 10 10 11 11 11 11 11 11 11 11 11 11 12 12 12 12 12 13 13 14 14 15 15 15
2 2 1 1 1 1 1 0 1 0 1 1 1 1 1 1 1 0 1 1 1 1 2 1 1 1 2 2 1 1 2 3 4 5 6 6 6 7 7 7 8 8 10 10 10 10 10 10 10 10 10 10 10 10 10 10 10 10 10 10 10 10 10 10 11 11 11 11 11 11 11 11 11 11 12 12 12 12 12 13 13 14 14 15 15 16
2 2 1 1 1 1 1 0 1 1 1 1 1 1 1 1 1 1 0 1 1 2 2 1 1 0 1 2 2 2 1 2 3 5 6 7 8 8 8 7 8 8 9 10 10 10 11 11 11 10 10 10 10 10 10 10 10 10 10 10 10 10 10 10 10 11 11 11 11 11 11 11 11 12 12 12 12 13 13 13 14 14 14 15 16 16
1 1 1 1 1 1 1 1 1 2 2 2 1 1 1 1 1 1 1 1 1 1 2 1 1 0 1 1 1 1 1 1 2 3 3 4 5 5 5 5 6 7 7 8 9 9 10 11 11 10 10 10 10 10 10 10 10 10 10 10 10 10 10 10 10 10 11 11 11 11 11 12 12 12 12 13 13 13 14 14 14 15 15 15 16 16
1 1 1 1 1 1 1 1 1 1 1 1 0 1 1 1 1 1 2 1 0 1 1 2 2 1 1 1 1 1 1 1 1 2 2 2 2 2 2 3 3 3 4 4 5 6 8 9 10 10 10 10 10 11 11 10 10 10 10 10 10 10 10 10 10 11 11 11 11 12 12 12 12 13 13 13 14 14 14 14 15 15 15 16 16 16
1 1 1 1 1 1 1 1 1 0 0 0 0 1 0 1 1 2 2 1 1 1 2 2 2 2 2 1 1 0 1 1 1 2 2 2 2 2 1 2 2 2 2 3 3 4 6 7 7 7 9 10 10 10 10 11 11 11 10 10 10 10 10 10 11 11 11 11 12 12 12 12 13 13 13 14 14 14 14 15 15 15 15 15 16 16
2 2 2 1 1 1 1 1 0 0 1 1 1 1 1 2 2 2 2 2 1 2 2 2 2 2 2 2 1 0 0 1 1 1 2 2 2 2 1 1 2 2 2 2 3 4 6 5 4 4 6 7 8 9 10 10 10 10 10 10 10 10 11 11 11 11 11 12 12 12 12 13 13 13 14 14 14 14 14 15 15 15 15 15 16 16
1 1 1 1 1 1 1 1 1 1 1 1 1 1 2 2 2 2 2 1 1 2 2 2 2 2 3 2 1 0 0 0 1 2 3 3 2 2 1 1 2 2 2 2 3 3 4 3 3 4 5 7 9 11 11 11 11 11 11 11 11 11 11 11 11 12 12 12 12 13 13 13 13 14 14 14 14 14 15 15 15 15 15 16 16 16
1 1 0 0 1 1 1 1 1 1 1 1 1 1 1 1 1 1 2 1 1 1 1 1 1 1 2 3 2 1 0 1 1 2 3 3 3 2 1 1 1 3 3 2 3 3 3 3 3 4 4 7 10 11 12 11 11 11 11 11 11 11 11 12 12 12 12 12 13 13 13 13 14 14 14 14 14 14 15 15 15 15 16 16 16 17
1 1 0 0 1 1 1 1 1 1 1 1 1 1 2 1 1 1 1 1 1 1 1 1 1 1 1 2 2 1 0 1 2 3 4 4 3 2 1 1 1 2 2 3 3 3 3 3 3 4 5 9 11 11 12 12 12 12 12 12 12 12 12 12 12 12 13 13 13 13 13 14 14 14 14 14 14 14 14 15 15 15 16 16 16 17
1 1 0 0 0 1 1 1 1 1 0 0 1 1 1 1 1 1 1 1 1 1 1 1 1 2 2 2 3 2 1 1 2 3 4 4 3 2 1 0 1 2 2 3 3 3 3 3 5 6 8 10 11 12 13 13 13 13 12 12 12 12 12 12 12 12 12 13 13 13 13 13 13 14 14 14 14 14 14 15 15 15 16 16 16 16
1 1 0 0 0 0 1 1 1 1 1 1 1 2 1 1 1 1 0 0 1 1 2 1 2 2 2 2 3 2 1 1 2 2 3 3 3 2 1 1 1 2 2 3 3 3 3 3 4 6 8 10 12 13 13 13 13 13 12 12 12 12 12 12 12 12 12 12 13 13 13 13 13 13 14 14 14 14 15 15 15 16 16 16 16 17
1 1 1 1 1 1 0 1 2 2 2 2 2 2 1 1 0 0 1 1 1 1 1 1 2 2 2 2 3 3 2 1 1 2 3 3 3 2 1 1 1 1 2 3 3 3 2 2 3 4 6 10 12 13 14 13 13 13 12 12 12 12 11 11 12 12 12 12 13 13 13 13 14 14 14 14 14 15 15 15 16 16 16 16 17 17
1 0 1 2 2 2 2 2 3 2 3 3 3 2 1 1 1 1 1 2 1 1 2 2 3 3 2 3 3 3 2 1 1 1 2 2 3 2 1 0 0 1 2 3 3 2 2 2 3 4 7 10 13 14 14 13 13 12 12 12 11 11 11 11 11 12 12 12 13 13 14 14 14 14 14 15 15 15 15 16 16 16 16 16 17 17
2 1 2 2 3 3 3 3 3 3 3 4 3 3 3 3 2 2 2 3 3 2 3 3 3 2 2 2 2 2 1 1 1 1 0 1 3 3 2 0 0 1 3 3 3 2 2 2 3 4 7 11 13 14 14 13 12 12 11 11 11 10 10 11 11 12 13 13 13 14 14 14 14 14 14 14 15 15 15 15 15 16 16 16 16 16
2 2 2 3 3 3 3 3 3 3 3 3 3 3 3 3 3 3 3 3 3 2 2 2 1 2 2 2 2 2 1 0 1 2 1 1 3 3 2 1 2 3 3 3 3 3 3 3 4 4 5 10 12 13 13 12 11 11 10 10 10 10 10 11 12 13 13 13 14 14 14 14 14 14 14 14 14 14 15 15 15 15 16 16 16 16
2 2 2 3 3 4 3 3 3 3 3 3 3 2 2 2 2 2 2 2 2 1 1 1 2 2 2 2 2 2 2 0 1 2 1 1 2 3 2 1 2 3 4 3 3 3 3 4 4 4 4 7 10 12 12 11 10 9 9 9 10 10 11 12 13 13 14 14 14 13 13 13 13 13 14 14 14 14 14 14 15 15 16 16 16 16
1 1 2 3 4 4 5 5 5 4 4 3 3 3 2 1 1 1 1 1 0 0 1 2 3 3 3 2 2 2 2 1 0 2 2 1 2 3 3 2 1 2 4 4 4 3 4 5 4 4 3 4 7 9 9 9 8 8 8 9 11 12 13 13 14 14 14 14 13 13 13 13 13 13 14 14 14 14 14 14 15 15 16 16 16 15
7 7 7 7 8 8 8 8 8 8 8 6 4 3 3 2 1 0 1 1 1 0 1 2 3 3 3 2 2 2 2 1 0 1 2 1 1 2 3 2 2 2 4 4 4 4 5 5 4 4 3 3 3 4 6 7 8 8 9 11 12 13 14 14 14 14 14 13 13 13 13 13 13 14 14 14 14 14 14 15 15 15 15 15 13 12
8 8 9 9 9 9 9 8 8 9 9 9 8 5 1 2 1 1 2 1 1 1 1 2 3 3 3 2 2 2 2 2 1 1 2 2 0 2 3 2 2 2 4 4 4 5 6 5 4 3 3 2 2 2 4 6 8 9 11 12 14 14 14 14 14 14 13 13 13 13 13 13 14 14 14 14 14 14 14 15 15 15 14 12 8 6
7 8 8 9 9 9 9 9 8 9 9 8 8 7 3 1 1 2 2 1 1 1 2 3 3 3 3 3 3 3 2 2 1 1 2 2 0 2 2 2 2 2 3 4 4 3 3 3 3 2 2 1 1 2 3 5 6 8 10 12 13 14 14 14 14 14 13 13 13 14 14 14 14 14 14 14 14 15 15 15 15 13 10 8 6 5
5 5 6 7 8 8 7 6 6 7 8 8 8 6 4 0 1 2 2 2 2 1 2 3 3 3 2 3 3 3 2 2 2 1 2 1 0 2 2 2 2 2 2 3 3 3 3 2 2 1 1 1 2 2 2 3 4 5 6 9 10 11 12 13 13 13 13 13 14 14 14 14 14 15 15 15 15 15 15 16 14 11 7 5 5 4
3 3 3 4 5 5 5 4 5 5 6 7 6 5 3 1 1 2 2 2 2 2 2 2 2 2 2 2 2 2 2 2 2 1 2 1 1 2 1 1 2 2 1 2 3 3 3 2 2 1 1 2 2 3 3 3 4 4 4 5 5 7 10 11 12 12 13 13 14 14 14 15 15 15 15 15 15 16 16 16 14 10 6 5 4 4
2 2 3 3 3 3 4 4 4 4 4 4 4 3 2 1 0 1 2 2 2 2 2 2 2 2 2 2 2 2 2 2 2 2 1 0 1 1 1 1 2 2 1 1 2 3 3 3 3 2 2 3 3 3 3 4 4 3 3 3 3 5 8 9 10 11 11 12 13 14 14 15 15 15 15 16 16 16 16 16 14 11 6 5 5 5
2 2 3 3 3 3 3 3 3 3 3 3 2 2 2 1 0 0 1 1 1 1 1 2 2 2 3 3 3 3 3 2 2 3 2 1 1 1 1 2 2 2 2 2 2 2 3 4 4 4 4 3 3 3 3 3 3 3 3 3 3 4 6 7 7 8 8 9 10 11 13 13 14 15 15 15 16 16 16 16 15 13 9 6 5 6
3 3 3 3 3 3 3 3 3 3 3 2 2 2 1 1 1 1 0 0 0 0 1 2 2 2 2 3 3 3 3 2 3 4 4 2 1 2 2 2 2 2 3 2 2 3 3 4 5 5 5 4 3 3 3 3 3 3 2 3 3 3 4 5 5 5 7 6 6 7 8 9 11 12 13 14 14 15 15 16 16 15 14 10 8 7
3 3 3 3 3 3 3 3 3 3 3 2 2 2 2 1 1 1 1 0 0 1 1 2 2 2 2 2 3 3 3 2 3 4 4 3 2 2 2 2 2 2 3 3 3 3 3 4 5 6 6 6 4 3 2 2 2 2 2 3 3 3 4 4 4 5 6 5 5 5 5 5 6 7 9 11 12 14 15 16 16 16 16 15 12 9
2 3 3 2 2 3 3 3 3 3 3 2 2 2 2 1 1 1 1 1 1 2 2 2 2 3 2 2 3 3 4 3 3 4 5 3 2 2 2 2 2 2 3 3 3 3 3 5 6 7 7 7 6 4 3 2 2 2 2 3 3 4 4 4 4 4 4 5 5 4 4 4 5 5 7 10 12 14 16 16 17 17 17 17 16 14
2 2 2 2 2 2 2 2 2 2 2 2 2 2 2 2 2 2 2 2 2 2 2 3 3 3 4 3 3 4 4 4 4 4 5 4 3 3 3 3 3 3 3 3 4 4 4 5 6 6 6 6 5 5 5 4 4 4 4 4 4 4 4 5 5 5 4 5 5 5 4 4 5 6 7 10 12 13 14 15 16 16 17 17 17 17
1 2 2 2 1 1 1 2 2 2 2 2 2 2 2 2 2 3 3 3 3 3 3 3 3 4 6 6 5 5 5 5 5 5 5 4 4 3 4 3 4 4 3 3 4 4 4 5 6 6 5 5 6 6 7 6 6 6 5 5 5 4 4 4 4 4 4 4 5 6 6 6 5 5 6 7 7 7 8 8 10 12 14 14 15 17
1 2 2 2 2 1 1 2 2 2 2 2 2 2 2 2 2 2 3 3 3 3 3 3 3 4 5 6 7 7 6 6 6 6 6 5 4 4 4 4 4 4 4 4 4 4 4 5 5 5 5 6 6 7 6 6 6 7 7 6 6 5 4 3 3 3 3 4 5 6 6 5 5 4 4 4 4 4 5 5 6 8 8 7 9 12
2 2 2 2 2 2 2 2 2 2 2 2 2 2 2 2 2 2 3 3 3 3 3 4 3 3 4 5 6 6 6 5 5 6 5 4 4 4 4 4 4 4 4 4 4 4 5 5 6 6 6 6 6 7 6 6 7 7 9 7 6 5 4 4 4 4 4 4 4 5 5 5 4 4 5 4 4 5 5 4 5 6 6 5 5 6
2 2 2 2 2 2 2 2 2 2 2 1 2 2 2 2 2 2 2 2 2 2 3 3 3 3 3 3 4 4 5 6 6 6 5 5 5 5 4 4 4 4 4 4 4 4 5 6 6 7 7 7 7 8 8 8 9 10 10 8 7 7 7 7 6 5 4 4 4 4 5 5 6 6 6 6 6 5 5 5 5 6 6 5 4 4
3 3 2 2 2 2 2 2 2 2 1 1 1 2 2 2 1 1 1 2 2 2 2 2 2 2 3 3 4 4 5 5 6 6 6 7 7 6 5 5 4 4 4 4 5 5 6 6 7 7 7 7 7 7 8 8 9 9 9 8 9 9 9 8 5 4 3 4 4 4 5 6 5 5 6 6 6 6 6 6 7 8 8 6 5 5
2 2 2 2 2 2 2 2 2 2 1 1 2 2 2 2 2 2 2 2 2 2 3 2 2 3 4 4 3 3 4 4 5 6 6 6 6 6 6 6 5 5 4 4 4 5 6 7 7 7 7 7 7 8 9 9 9 8 8 8 8 8 6 5 4 4 4 5 5 5 5 5 5 6 6 6 6 6 6 8 9 10 10 7 6 6
3 3 2 2 2 1 1 1 1 2 2 2 2 3 3 2 2 2 2 2 3 3 3 2 2 3 4 4 4 3 3 3 4 4 5 6 6 6 6 6 6 5 5 4 4 4 5 6 7 7 6 7 7 8 9 9 9 8 8 8 8 8 7 6 6 7 7 7 6 5 5 5 5 6 6 6 6 6 6 6 6 7 8 8 7 7
3 2 2 2 1 0 1 1 2 2 2 3 3 3 3 3 3 3 2 3 3 3 3 2 3 3 3 3 3 3 3 3 3 3 3 5 6 7 6 6 5 5 5 5 5 5 5 6 6 6 6 6 7 8 9 9 9 9 9 8 8 8 8 8 8 8 8 7 7 6 5 5 5 6 7 7 7 6 6 6 7 7 7 7 7 7
2 2 2 1 1 2 2 2 2 2 3 3 3 3 3 3 3 3 3 3 3 3 3 3 2 3 4 4 5 4 4 4 3 3 3 3 4 4 5 5 5 5 5 5 6 6 6 6 6 7 6 7 8 8 8 8 9 9 9 8 8 8 8 8 8 8 7 8 7 7 6 5 6 7 8 7 7 7 7 7 7 7 7 7 7 7
1 1 1 1 2 2 2 2 2 3 3 3 3 4 3 3 3 3 3 3 3 3 3 3 2 3 4 4 4 5 5 5 4 4 3 3 3 3 3 4 5 5 5 6 6 7 7 8 7 7 7 8 8 8 8 8 8 8 8 8 8 8 8 7 7 7 7 8 7 6 5 5 6 7 9 8 8 8 7 6 6 6 7 7 7 7
1 1 2 2 2 2 2 2 3 3 3 3 3 3 3 3 4 4 3 3 3 3 3 3 3 3 4 4 4 5 5 6 5 5 4 3 3 3 3 3 4 5 5 6 7 8 8 8 9 9 8 8 8 9 9 8 8 8 8 8 8 8 8 8 7 7 7 7 7 6 5 5 6 8 9 9 9 8 8 7 6 6 6 6 6 6
1 2 2 2 2 2 3 3 3 3 3 4 3 3 3 4 5 5 4 3 3 3 3 3 4 4 4 4 5 5 6 6 5 5 4 3 3 3 3 3 3 3 4 5 5 6 7 8 9 10 9 9 9 9 9 9 8 8 7 7 7 8 8 8 7 7 7 7 6 6 5 5 6 7 7 8 9 9 9 8 7 6 6 6 6 6
2 2 2 2 2 3 3 3 3 4 4 4 4 4 3 3 3 3 3 3 3 3 3 4 4 5 5 5 5 5 6 5 5 4 4 3 3 3 3 3 3 3 4 4 4 4 4 5 6 8 10 11 11 10 9 9 8 8 7 7 7 7 7 7 7 6 6 7 7 6 5 5 5 5 6 7 9 10 9 9 8 7 6 6 6 6
3 2 2 2 3 3 3 3 4 4 4 4 4 4 4 3 3 3 3 3 3 3 3 4 4 5 5 6 6 6 6 6 6 5 4 3 3 3 3 3 3 4 4 4 4 4 3 3 4 5 7 10 11 11 8 7 6 6 7 6 6 5 6 6 6 6 7 7 6 6 5 6 6 6 5 6 8 10 10 10 9 8 7 6 6 6
Wind_Direction
52 59 66 95 105 112 117 129 136 139 143 141 141 142 145 144 146 157 174 179 185 194 205 214 226 241 256 263 264 264 263 264 265 266 269 274 277 281 284 286 288 289 289 287 286 285 283 282 281 280 279 279 279 279 280 281 282 282 284 284 285 286 287 288 289 290 291 292 292 293 294 295 295 296 297 297 296 295 293 291 290 288 287 286 285 285
61 65 60 87 103 115 122 129 137 144 149 153 157 160 157 157 159 167 180 189 193 197 205 213 221 229 239 250 255 257 259 262 266 271 276 281 285 289 292 294 295 295 294 293 291 289 287 284 283 281 280 279 279 279 279 280 281 281 282 284 285 286 287 288 289 290 291 292 292 292 293 292 292 292 292 291 290 288 287 285 284 284 283 283 284 284
70 71 60 68 83 98 115 125 132 137 141 150 158 162 161 164 168 173 179 192 197 202 208 214 222 229 235 244 250 254 257 264 271 278 283 287 291 294 297 299 299 299 298 297 294 292 290 288 286 285 283 282 282 282 282 282 282 283 283 284 284 285 285 286 287 287 287 287 287 287 287 286 286 286 286 285 284 284 283 282 283 284 284 285 286 287
69 79 81 62 61 71 94 117 128 136 141 147 153 157 159 167 177 184 185 191 200 210 218 220 225 230 234 240 245 251 258 269 278 285 289 293 297 300 303 303 302 301 300 298 296 294 293 291 290 289 288 287 287 287 287 287 287 287 287 286 286 285 284 283 282 281 280 280 279 278 279 279 280 280 281 281 282 283 284 284 285 286 287 287 288 288
59 70 81 72 66 68 79 107 125 138 142 145 149 155 160 173 188 196 199 202 210 218 225 224 223 224 226 227 239 251 264 277 286 291 296 300 304 306 307 306 304 302 300 298 297 295 294 293 292 292 291 291 292 293 294 294 295 295 295 294 293 292 288 286 284 282 279 278 276 276 277 277 278 279 281 282 283 284 286 286 287 287 287 287 287 287
75 77 80 76 74 80 91 111 129 140 142 148 154 160 169 188 200 211 218 219 220 221 222 216 211 211 213 219 241 261 276 288 296 301 304 307 309 310 309 308 306 304 302 301 299 298 297 295 294 294 294 295 298 301 305 306 308 308 309 308 305 303 300 296 292 289 286 283 281 280 280 280 280 281 282 283 284 285 286 286 287 287 287 287 286 286
88 80 79 75 77 84 99 123 143 150 148 151 158 167 181 196 208 218 226 224 221 218 212 197 187 188 199 234 271 286 295 303 308 310 311 312 312 312 311 310 309 308 307 306 305 304 303 302 301 303 304 307 310 314 317 317 317 317 317 314 311 308 304 300 297 293 290 288 286 284 283 282 282 282 282 283 283 284 285 285 286 286 286 286 286 286
91 80 71 76 79 83 94 125 153 162 155 157 161 174 195 206 211 214 215 211 205 198 183 140 93 64 34 343 323 316 310 312 311 310 309 309 310 311 313 314 315 316 316 317 317 318 318 318 317 318 319 320 321 321 322 321 320 318 316 312 308 305 301 299 296 293 290 289 287 285 284 283 282 282 282 283 283 284 284 285 285 286 286 286 286 286
82 80 64 71 81 91 92 119 185 174 152 160 166 179 194 206 213 211 76 56 61 74 73 50 26 1 345 344 333 322 308 299 297 299 303 303 306 311 316 322 325 327 329 330 331 332 332 331 329 327 326 324 323 322 321 319 317 315 311 307 304 301 298 295 293 291 289 287 286 285 284 283 283 282 282 282 282 282 283 283 284 284 285 285 285 285
66 71 62 52 66 88 105 300 308 339 87 127 147 156 167 177 182 175 2 353 6 34 58 60 39 350 328 326 323 321 314 309 310 312 316 318 320 322 328 335 338 338 338 338 339 338 337 334 331 328 325 323 321 320 319 317 314 311 307 303 300 297 294 291 289 288 287 286 285 284 283 282 281 281 280 280 280 280 280 280 281 281 282 282 283 283
52 54 54 36 28 35 55 3 2 23 52 65 60 52 75 133 144 150 264 315 334 1 34 49 54 4 315 314 316 323 335 323 318 318 322 323 326 329 335 340 342 342 341 340 339 337 335 332 328 326 324 322 321 319 318 315 312 308 304 300 297 294 291 289 287 286 285 284 283 282 281 280 279 279 278 278 278 278 278 278 278 278 279 279 280 281
53 48 48 34 20 14 15 14 19 31 47 57 39 4 341 23 102 135 169 225 293 338 1 359 350 284 233 269 294 315 339 323 313 310 313 318 323 329 334 336 338 338 339 337 335 333 331 329 327 325 324 323 321 319 317 314 310 306 302 298 294 291 289 287 286 285 284 283 282 281 280 280 280 280 280 279 279 279 278 277 277 277 277 277 277 278
45 45 43 30 23 15 12 20 23 29 38 70 174 243 269 349 57 95 132 150 144 357 359 347 332 308 255 236 250 296 321 302 293 292 298 302 308 314 321 322 322 325 330 331 327 324 324 324 324 323 321 319 317 315 314 310 307 303 299 295 292 290 288 287 285 285 284 283 282 282 282 283 283 282 282 281 281 280 279 278 278 278 278 278 278 278
26 28 29 18 7 1 10 33 38 20 299 217 195 206 234 32 52 67 82 66 33 12 18 3 334 312 296 279 260 255 284 289 291 295 296 286 278 275 284 298 301 302 312 317 312 308 310 317 318 317 314 313 312 310 307 305 302 299 296 293 291 290 289 288 287 287 286 285 285 286 286 286 286 285 285 284 284 283 283 283 282 282 282 282 281 281
22 25 20 1 346 340 352 17 9 299 279 323 6 30 38 37 47 60 72 54 21 7 20 7 338 316 301 293 288 266 250 286 301 301 298 285 270 249 233 281 292 295 302 304 298 298 302 308 306 301 301 302 300 299 298 298 297 296 295 294 293 292 292 291 291 291 290 290 289 290 290 289 289 289 288 288 288 288 288 287 286 286 285 284 283 283
23 33 16 336 320 317 333 5 357 322 317 343 6 33 54 46 47 59 77 74 35 19 30 21 355 329 308 304 302 309 257 320 307 297 298 292 278 248 186 265 293 295 293 292 289 290 296 296 290 285 287 290 292 294 296 297 297 297 297 296 296 295 295 295 295 295 295 294 294 293 293 293 292 292 291 291 290 289 289 288 287 286 285 284 283 282
31 52 43 293 290 303 327 351 358 343 340 354 10 31 58 65 68 75 87 91 66 46 45 50 17 322 305 309 311 315 59 339 310 300 299 295 286 263 181 211 277 288 290 287 282 281 285 286 284 281 279 283 288 293 297 299 300 299 299 299 298 298 298 298 299 299 298 297 297 295 295 294 293 292 291 290 289 288 287 286 285 284 284 282 282 281
33 56 93 243 285 310 333 341 343 348 358 11 21 28 37 42 57 76 95 102 98 88 83 110 183 220 241 285 288 283 149 328 314 309 304 297 290 278 211 196 246 271 281 281 277 273 272 271 271 272 275 287 293 297 301 302 302 301 300 300 300 300 300 300 301 300 300 298 297 295 294 293 291 290 289 288 287 287 287 286 286 285 285 284 284 283
30 28 24 316 311 328 334 327 324 333 356 51 68 61 42 23 32 56 82 111 130 142 159 185 216 227 216 247 262 266 210 291 314 311 302 296 291 288 280 231 250 266 272 272 270 266 262 262 266 272 279 291 297 300 302 303 302 302 301 301 301 301 301 301 301 301 300 298 297 295 293 291 290 289 289 289 289 289 289 289 289 288 287 287 286 286
50 17 321 189 134 23 334 299 272 238 201 159 123 105 91 50 37 50 79 135 162 166 166 185 221 238 234 246 261 268 253 318 323 308 290 287 284 282 279 229 242 262 272 266 263 258 257 261 270 279 286 292 297 300 302 301 301 301 301 301 301 302 302 302 302 301 301 299 298 296 294 293 292 292 291 291 292 291 291 290 289 289 288 288 287 286
62 9 272 196 153 137 247 255 247 227 184 137 113 102 108 106 95 202 215 194 185 182 173 201 226 233 233 249 264 270 264 327 323 302 285 283 279 276 264 215 216 257 272 268 263 259 258 265 269 274 281 291 296 298 300 300 300 300 300 300 301 301 302 302 302 302 302 301 301 299 298 297 296 295 295 293 292 291 290 289 288 288 287 286 285 285
91 318 251 206 184 181 208 230 233 219 171 139 129 129 157 161 182 215 217 196 191 197 205 220 228 234 240 254 263 263 238 196 226 258 280 287 284 280 274 205 173 269 275 273 270 267 265 267 268 273 279 289 294 297 298 298 298 298 298 299 300 301 303 303 304 305 305 305 304 303 301 300 298 297 295 294 292 290 289 288 287 286 285 285 284 284
134 186 224 213 206 205 212 221 225 214 181 166 164 170 178 173 181 191 195 189 192 202 210 221 235 249 260 265 271 272 257 196 169 170 216 275 278 279 281 309 338 304 285 282 284 287 285 276 271 274 281 288 292 294 296 296 296 297 297 299 300 302 304 305 306 307 307 306 304 303 301 300 298 296 295 293 291 289 288 287 287 286 286 286 286 285
160 192 214 214 213 214 215 222 221 214 200 196 194 190 184 180 181 182 180 181 184 192 205 234 275 302 306 295 291 291 289 112 119 126 132 254 267 274 282 309 316 307 295 292 293 297 298 289 279 273 277 284 287 289 292 294 295 296 297 299 302 304 306 307 307 306 305 304 303 301 300 298 297 296 294 293 291 290 289 289 289 289 289 289 289 289
175 197 218 220 222 223 230 234 226 213 201 206 210 211 201 195 185 174 162 164 172 192 240 293 304 305 302 305 300 295 286 353 116 129 145 251 273 281 287 302 313 308 302 301 304 306 302 295 286 278 272 277 281 285 289 292 294 297 299 302 304 306 307 307 306 305 303 302 301 300 299 298 297 297 296 295 294 293 292 293 293 293 293 292 292 292
21 336 303 290 286 287 295 299 289 267 249 221 208 200 191 189 179 156 143 168 189 255 304 301 296 293 292 293 288 284 283 292 147 140 145 219 285 293 295 308 318 313 307 309 310 309 302 294 287 279 271 272 280 285 289 293 298 302 305 306 307 307 307 305 304 303 302 301 300 300 300 299 299 299 299 298 297 297 297 297 297 296 296 296 295 295
1 350 342 336 332 329 327 327 320 311 304 291 267 224 177 156 146 176 257 231 215 255 291 291 292 292 294 288 279 278 284 293 274 142 135 124 300 298 295 312 329 327 315 311 308 301 292 287 282 277 273 275 286 294 296 302 307 310 311 309 307 306 304 303 302 301 301 301 300 301 301 301 301 301 301 301 300 300 300 300 299 299 298 298 297 296
359 352 346 342 338 336 335 332 327 320 314 306 297 286 224 155 160 232 256 237 217 236 271 279 286 292 295 290 290 292 292 283 269 167 127 104 76 282 284 310 325 327 316 308 301 291 282 276 272 271 274 286 301 306 304 310 313 313 310 307 304 303 302 301 301 300 300 300 300 301 302 302 303 303 303 303 303 302 302 302 301 300 300 299 298 296
360 352 344 340 339 340 342 339 332 323 314 306 301 300 309 182 190 231 243 216 199 225 259 270 278 285 292 295 301 303 296 278 259 168 113 92 341 273 279 310 321 318 317 309 302 292 276 268 263 262 273 284 288 289 292 307 310 308 303 301 299 299 298 298 299 299 299 300 301 301 302 303 303 304 304 304 304 303 303 302 302 301 299 297 295 292
354 350 342 337 338 340 341 335 327 321 318 313 311 313 333 316 190 202 206 178 177 207 249 266 275 282 291 300 304 303 294 278 260 170 105 85 311 277 284 306 305 302 319 318 314 308 298 286 276 269 269 280 280 280 283 292 292 289 289 291 292 292 293 295 297 298 300 300 301 302 302 303 303 303 303 303 303 303 302 302 302 300 297 293 290 286
337 335 326 323 326 330 331 325 321 319 321 323 326 331 348 20 161 173 168 161 165 184 226 254 266 273 278 287 292 292 286 277 247 189 124 110 263 266 261 288 287 284 293 329 325 316 311 304 295 284 280 290 291 287 282 277 273 271 270 275 279 283 287 292 295 298 300 300 301 301 302 302 302 302 302 302 302 301 301 301 301 299 294 289 284 279
312 312 307 308 313 319 323 322 321 323 325 331 335 340 345 2 139 158 163 165 168 178 206 234 249 254 252 254 257 261 269 277 249 214 167 212 263 262 232 274 287 290 282 312 310 302 302 301 298 295 297 296 291 285 276 270 267 265 266 267 270 277 285 290 295 297 299 299 299 299 299 299 299 300 299 300 300 300 299 299 299 297 292 285 279 275
312 311 308 313 318 319 319 320 321 325 327 330 331 332 338 342 347 175 182 190 182 179 193 220 234 241 245 249 253 258 266 275 278 279 289 295 292 286 282 293 299 301 302 298 283 273 275 287 295 300 299 293 284 278 273 270 266 263 262 266 268 275 283 288 291 293 292 293 294 295 295 296 296 296 296 297 297 297 297 297 295 293 289 284 279 277
325 320 318 323 324 323 321 321 323 327 331 330 329 330 335 338 341 344 328 315 316 175 184 206 221 232 243 254 260 263 267 270 284 294 307 310 304 296 298 298 299 301 304 296 286 277 274 282 292 300 301 296 288 277 271 268 267 263 254 256 263 273 280 284 285 284 284 285 286 287 288 289 289 290 291 292 293 293 293 293 292 291 290 288 286 285
332 325 321 325 325 325 323 325 329 331 332 328 324 322 324 324 321 315 298 268 231 204 199 203 207 213 223 247 262 269 270 274 289 299 307 306 299 294 293 290 290 295 297 293 291 289 286 289 294 299 302 302 299 290 268 257 257 258 254 250 257 264 270 274 276 278 280 280 279 277 276 276 277 280 283 285 286 288 289 290 291 291 292 291 290 290
335 321 313 316 318 319 319 321 325 327 323 314 306 301 300 291 282 267 253 238 224 217 215 214 213 213 218 235 252 264 271 275 285 290 290 285 282 282 283 281 281 286 287 287 288 289 290 293 295 297 299 301 302 300 291 275 269 273 277 268 266 265 266 265 265 268 274 276 276 274 270 268 267 268 272 279 283 286 288 290 292 293 292 292 290 288
328 306 295 292 296 302 307 309 310 308 305 300 296 291 281 269 261 255 248 237 231 229 230 234 237 241 245 244 246 252 261 263 266 266 266 260 257 260 267 272 273 273 274 279 283 287 288 291 294 295 294 294 296 301 305 307 306 300 293 287 281 277 272 266 261 258 262 268 271 272 271 268 267 268 271 279 284 287 290 291 292 291 291 290 289 287
308 286 275 266 265 274 291 291 286 280 276 280 283 282 271 259 255 254 254 246 240 238 240 243 248 254 257 259 256 253 253 251 250 249 248 243 242 246 255 264 267 264 262 267 273 279 282 286 291 293 292 289 290 293 301 307 308 306 300 295 289 281 274 268 260 255 254 262 268 272 274 273 273 274 277 281 284 287 288 286 286 286 287 287 287 286
273 265 267 266 260 251 249 260 262 261 257 261 266 268 266 267 266 264 260 255 250 246 242 243 245 248 250 253 256 257 257 251 247 244 242 238 237 241 249 257 262 262 258 257 260 264 268 273 279 285 289 292 293 294 297 300 301 303 304 302 298 289 277 271 264 258 257 262 271 277 279 279 278 278 278 278 278 278 279 279 279 279 281 283 285 286
251 254 270 275 265 246 234 243 248 251 248 260 272 284 295 296 293 287 278 273 271 268 263 257 253 250 248 250 253 256 256 253 249 245 242 237 234 236 242 249 255 259 259 257 255 256 259 265 269 274 279 285 290 293 295 295 297 300 304 305 304 300 298 294 285 276 270 267 270 276 280 279 276 274 272 271 270 270 271 274 276 278 278 277 280 284
252 256 264 260 254 247 244 247 247 247 247 269 296 309 306 299 296 294 294 299 298 293 289 284 280 277 275 267 261 255 252 251 248 245 242 238 235 235 238 242 248 253 257 258 257 255 255 261 266 270 273 277 281 284 286 288 291 295 298 297 296 297 300 298 294 289 283 276 271 271 276 280 280 278 276 275 272 269 267 269 272 275 275 269 265 266
267 265 255 246 243 242 250 262 267 269 278 306 307 294 277 268 265 269 283 293 292 287 282 284 287 291 291 283 273 262 254 249 246 242 239 235 234 234 235 238 242 245 250 255 257 257 255 258 263 267 270 274 278 281 282 284 286 288 289 289 293 295 296 293 291 288 287 284 279 277 278 281 282 281 280 278 276 272 269 267 268 270 272 267 260 255
264 259 254 249 242 241 254 278 290 304 318 314 294 278 264 254 250 256 268 269 274 276 280 277 280 285 291 289 283 275 265 255 247 241 236 231 229 230 231 234 236 238 241 251 257 259 259 258 260 263 266 269 272 276 280 283 285 285 283 285 290 295 295 295 294 293 289 288 285 282 279 279 278 278 277 277 276 274 271 269 269 268 268 267 264 259
256 258 258 249 242 244 284 317 320 314 307 294 284 279 276 266 264 267 274 272 276 281 284 282 283 285 288 289 287 284 277 270 260 252 248 239 231 227 228 229 232 235 233 241 251 260 265 262 261 261 263 265 268 271 275 280 282 283 282 282 282 282 281 289 295 297 293 290 287 283 278 277 278 279 279 277 275 273 270 267 265 263 263 261 260 259
251 264 266 260 262 320 346 324 310 299 293 287 284 283 284 276 273 274 277 277 282 284 281 283 288 290 291 291 293 294 295 291 285 279 275 261 251 242 232 227 227 230 231 234 241 248 258 264 266 266 266 265 265 267 271 276 279 281 281 281 280 278 275 281 286 289 288 288 286 283 278 276 279 281 281 280 277 274 270 267 265 263 260 256 255 254
250 262 273 291 315 323 317 308 302 295 291 289 287 285 283 278 276 277 277 278 278 280 278 278 281 288 294 301 305 306 306 301 295 288 281 275 266 255 241 233 229 229 231 235 238 242 247 255 263 269 272 270 267 265 264 270 275 279 281 281 281 280 279 279 280 281 282 283 283 281 278 277 278 280 281 280 278 275 270 265 262 261 260 258 255 253
250 269 296 315 322 316 309 303 299 295 292 289 287 286 285 281 280 279 277 273 272 273 275 274 274 281 289 296 300 301 301 298 294 288 277 272 268 261 253 245 239 236 235 238 241 243 245 249 254 261 267 271 271 270 267 268 271 274 278 280 281 280 278 278 278 278 279 279 279 278 277 279 279 279 278 279 279 278 275 270 264 261 260 261 260 259
275 304 315 315 312 306 302 298 295 294 292 289 287 286 287 286 286 286 281 276 275 278 284 283 281 282 284 285 286 287 289 291 292 291 286 278 272 265 256 252 248 245 243 243 244 246 246 246 247 249 254 260 266 270 272 270 269 270 273 275 277 276 276 276 276 276 275 273 272 271 272 275 276 278 280 280 280 279 279 276 271 266 264 265 267 268
320 313 307 306 303 300 296 296 295 293 292 291 290 288 285 285 288 290 287 283 280 279 282 282 282 282 283 282 282 282 284 285 286 287 286 282 278 272 263 258 257 258 258 253 250 249 249 247 242 240 240 245 253 262 268 269 269 268 269 271 271 273 275 276 276 276 275 274 271 268 265 267 269 272 277 280 281 281 282 282 280 277 273 272 271 271
314 303 302 300 296 293 291 292 291 290 289 289 289 288 285 281 279 277 275 272 270 268 268 271 276 279 282 283 283 283 282 283 283 283 282 280 282 282 279 280 281 284 285 278 272 267 263 256 246 238 233 235 240 249 261 266 268 269 268 267 268 270 273 276 277 278 278 279 278 275 271 272 272 273 276 280 283 286 288 287 287 285 282 279 275 272
310 302 298 295 291 289 287 285 284 284 284 285 286 287 287 283 276 270 264 263 264 265 265 267 270 274 278 281 282 282 281 282 283 283 281 281 283 286 287 290 293 296 298 296 294 291 288 285 276 260 243 237 236 239 249 257 265 269 269 268 267 270 274 277 279 281 282 284 285 286 286 285 284 282 282 285 287 288 289 288 286 285 283 281 277 274